DW1520 Weather Reports


time (UTC)temp
C
wind
direction
speed
KPH
gust
KPH
rain 1hr
cm
rain 24hr
cm
rain mn
cm
humidity
%
barometer
mb
20260903155506 23 161 3.2 4.8 0.00 0.28 0.28 91 1007.3
20260903155006 23 161 1.6 8.0 0.00 0.28 0.28 92 1007.5
20260903154506 22 161 1.6 4.8 0.00 0.28 0.28 92 1007.4
20260903153506 22 161 1.6 8.0 0.00 0.28 0.28 92 1007.7
20260903152006 21 160 3.2 9.7 0.00 0.28 0.28 92 1007.8
20260903150506 21 160 3.2 9.7 0.00 0.28 0.28 92 1007.7
20260903150006 21 161 1.6 8.0 0.00 0.28 0.28 92 1007.7
20260903145506 21 170 3.2 9.7 0.00 0.28 0.28 92 1007.4
20260903145006 21 155 3.2 4.8 0.00 0.28 0.28 92 1007.4
20260903144506 21 155 1.6 4.8 0.00 0.28 0.28 92 1007.8
20260903144006 21 155 0.0 4.8 0.00 0.28 0.28 92 1007.8
20260903143506 21 155 1.6 4.8 0.00 0.28 0.28 92 1007.8
20260903143006 21 153 3.2 4.8 0.00 0.28 0.28 92 1008.1
20260903142505 21 153 3.2 9.7 0.00 0.28 0.28 92 1008.1
20260903142006 21 171 3.2 4.8 0.00 0.28 0.28 92 1008.0
20260903141506 21 175 3.2 9.7 0.00 0.28 0.28 92 1008.0
20260903141006 21 175 3.2 4.8 0.00 0.28 0.28 92 1007.7
20260903140506 21 163 0.0 3.2 0.00 0.28 0.28 92 1007.6
20260903140006 21 163 0.0 4.8 0.00 0.28 0.28 92 1007.7
20260903135506 21 165 4.8 8.0 0.00 0.28 0.28 92 1008.0
20260903135006 21 66 0.0 3.2 0.00 0.28 0.28 92 1007.6
20260903134006 20 315 1.6 4.8 0.00 0.28 0.28 92 1007.7
20260903133506 20 169 3.2 8.0 0.00 0.28 0.28 92 1007.9
20260903132506 20 165 3.2 8.0 0.00 0.28 0.28 92 1008.5
20260903132006 20 165 1.6 3.2 0.00 0.28 0.28 92 1008.8
20260903131506 20 165 0.0 3.2 0.00 0.28 0.28 92 1008.8
20260903131007 20 165 0.0 1.6 0.00 0.28 0.28 92 1008.9
20260903130506 20 165 0.0 3.2 0.00 0.28 0.28 92 1008.8
20260903130006 20 165 3.2 8.0 0.00 0.28 0.28 92 1008.7
20260903125511 20 165 1.6 8.0 0.03 0.28 0.28 92 1008.4
20260903125006 20 165 3.2 4.8 0.03 0.28 0.28 92 1008.5
20260903124506 20 163 0.0 4.8 0.05 0.28 0.28 92 1009.0
20260903123006 20 163 1.6 4.8 0.08 0.28 0.28 92 1009.2
20260903122506 20 155 3.2 4.8 0.08 0.28 0.28 92 1009.2
20260903122006 20 155 3.2 4.8 0.10 0.28 0.28 92 1009.3
20260903121506 20 132 3.2 8.0 0.13 0.28 0.28 92 1009.6
20260903121006 20 175 0.0 0.0 0.13 0.28 0.28 92 1009.5
20260903120506 20 175 0.0 0.0 0.13 0.28 0.28 92 1009.6
20260903120005 20 175 0.0 1.6 0.15 0.28 0.28 92 1009.4
20260903115505 20 175 0.0 3.2 0.13 0.25 0.25 92 1009.2
20260903114505 20 175 0.0 4.8 0.13 0.23 0.23 92 1008.7
20260903114006 20 175 1.6 4.8 0.15 0.23 0.23 92 1008.4
20260903113006 21 151 3.2 4.8 0.15 0.20 0.20 91 1008.6
20260903112505 21 150 1.6 8.0 0.18 0.20 0.20 92 1008.7
20260903112006 21 150 1.6 4.8 0.15 0.18 0.18 92 1009.2
20260903111505 21 150 0.0 4.8 0.13 0.15 0.15 91 1009.1
20260903110506 21 150 1.6 4.8 0.15 0.15 0.15 91 1009.0
20260903105505 21 150 3.2 8.0 0.13 0.13 0.13 91 1008.7
20260903105006 21 143 1.6 4.8 0.10 0.10 0.10 91 1008.8
20260903104506 21 174 3.2 9.7 0.10 0.10 0.10 91 1008.9
20260903103005 21 155 3.2 9.7 0.05 0.05 0.05 90 1008.5
20260903102006 22 174 8.0 12.9 0.03 0.03 0.03 90 1008.8
20260903101506 22 165 4.8 8.0 0.03 0.03 0.03 90 1009.0
20260903101006 22 177 1.6 4.8 0.03 0.05 0.03 91 1009.4
20260903100506 22 171 3.2 12.9 0.00 0.08 0.00 91 1009.5
20260903100006 22 175 3.2 8.0 0.00 0.08 0.00 91 1009.2
20260903095006 22 157 3.2 8.0 0.00 0.08 0.00 91 1008.4
20260903094505 22 157 3.2 4.8 0.00 0.08 0.00 91 1008.2
20260903093506 21 157 1.6 4.8 0.00 0.08 0.00 91 1007.8
20260903093006 21 157 3.2 4.8 0.00 0.08 0.00 91 1007.8
20260903092505 21 157 1.6 3.2 0.00 0.08 0.00 91 1007.6
20260903091506 21 157 3.2 4.8 0.00 0.08 0.00 91 1007.7
20260903091005 21 157 0.0 3.2 0.00 0.08 0.00 91 1007.5
20260903090506 21 157 0.0 0.0 0.00 0.08 0.00 91 1007.4
20260903090005 21 157 0.0 0.0 0.00 0.08 0.00 91 1007.3
20260903085006 21 157 0.0 0.0 0.00 0.08 0.00 90 1007.4
20260903084506 21 157 0.0 3.2 0.00 0.08 0.00 90 1007.6
20260903084006 21 157 1.6 3.2 0.00 0.08 0.00 90 1007.8
20260903083506 21 157 0.0 0.0 0.00 0.08 0.00 90 1007.5
20260903083006 21 157 0.0 0.0 0.00 0.08 0.00 90 1007.4
20260903082505 21 157 0.0 0.0 0.00 0.08 0.00 90 1007.4
20260903082006 21 157 0.0 0.0 0.00 0.08 0.00 90 1007.5
20260903081506 22 157 0.0 0.0 0.00 0.08 0.00 90 1007.6
20260903081006 22 157 0.0 0.0 0.00 0.08 0.00 90 1007.5
20260903080006 22 157 0.0 3.2 0.00 0.08 0.00 90 1007.3
20260903075506 22 157 0.0 0.0 0.00 0.08 0.00 90 1007.3
20260903075006 22 157 0.0 0.0 0.00 0.08 0.00 90 1007.2
20260903074506 22 157 0.0 0.0 0.00 0.08 0.00 90 1007.2
20260903074006 22 157 0.0 0.0 0.00 0.08 0.00 89 1007.2
20260903073506 22 157 0.0 0.0 0.00 0.08 0.00 89 1007.2
20260903073006 22 157 0.0 0.0 0.00 0.08 0.00 89 1007.3
20260903072006 22 157 0.0 0.0 0.00 0.08 0.00 89 1007.4
20260903071505 22 157 0.0 1.6 0.00 0.08 0.00 89 1007.4
20260903071006 22 157 0.0 3.2 0.00 0.08 0.00 89 1007.4
20260903070506 22 157 0.0 3.2 0.00 0.08 0.00 89 1007.4
20260903070005 22 157 0.0 3.2 0.00 0.10 0.00 89 1007.5
20260903065006 22 157 0.0 3.2 0.00 0.13 0.00 89 1007.6
20260903064505 22 157 0.0 1.6 0.00 0.15 0.00 89 1007.6
20260903064006 22 157 0.0 1.6 0.00 0.23 0.00 88 1007.6
20260903063506 22 157 0.0 0.0 0.00 0.61 0.00 88 1007.6
20260903063006 22 157 0.0 0.0 0.00 0.86 0.00 88 1007.6
20260903062505 22 157 0.0 1.6 0.00 0.86 0.00 88 1007.7
20260903062005 22 157 0.0 3.2 0.00 0.86 0.00 88 1007.8
20260903061506 22 157 0.0 3.2 0.00 0.86 0.00 88 1007.8
20260903060006 22 157 0.0 1.6 0.00 0.86 0.00 89 1007.8
20260903055505 22 157 0.0 1.6 0.00 0.86 0.00 89 1007.9
20260903055006 22 157 0.0 1.6 0.00 0.86 0.00 89 1007.9
20260903054505 22 157 0.0 1.6 0.00 0.86 0.00 89 1007.8
20260903054006 22 157 0.0 0.0 0.00 0.86 0.00 89 1007.9
20260903053006 23 157 0.0 3.2 0.00 0.86 0.00 89 1007.9
20260903052506 23 157 0.0 3.2 0.00 0.86 0.00 89 1007.9
20260903052006 23 157 0.0 1.6 0.00 0.86 0.00 88 1008.0
20260903050006 23 157 0.0 3.2 0.00 0.86 0.00 88 1008.0
20260903044505 23 157 0.0 1.6 0.00 0.86 0.86 87 1008.0
20260903044006 23 157 1.6 3.2 0.00 0.89 0.86 87 1008.0
20260903043506 23 157 0.0 0.0 0.00 0.89 0.86 87 1008.0
20260903043006 23 157 0.0 3.2 0.00 0.89 0.86 87 1008.0
20260903042505 23 157 1.6 3.2 0.00 0.89 0.86 87 1008.0
20260903042005 23 157 1.6 3.2 0.00 0.89 0.86 87 1008.0
20260903041006 23 157 1.6 3.2 0.00 0.89 0.86 86 1008.1
20260903040506 23 157 0.0 1.6 0.00 0.89 0.86 86 1008.1
20260903040008 23 157 0.0 3.2 0.00 0.89 0.86 86 1008.1
20260903035505 23 157 0.0 1.6 0.00 0.89 0.86 86 1008.1
20260903035006 23 157 0.0 1.6 0.00 0.89 0.86 86 1008.2
20260903034505 23 157 0.0 1.6 0.00 0.89 0.86 86 1008.2
20260903034006 23 157 0.0 0.0 0.00 0.89 0.86 86 1008.2
20260903033506 23 157 0.0 0.0 0.00 0.89 0.86 85 1008.3
20260903033005 23 157 0.0 0.0 0.00 0.89 0.86 85 1008.3
20260903032006 23 157 0.0 0.0 0.00 0.89 0.86 85 1008.3
20260903031506 23 157 0.0 0.0 0.00 0.89 0.86 86 1008.4
20260903031005 23 157 0.0 0.0 0.00 0.89 0.86 85 1008.4
20260903030506 23 157 0.0 0.0 0.00 0.89 0.86 85 1008.4
20260903030005 23 157 0.0 0.0 0.00 0.89 0.86 85 1008.4
20260903025506 23 157 0.0 0.0 0.00 0.89 0.86 85 1008.4
20260903025006 23 157 0.0 0.0 0.00 0.89 0.86 85 1008.4
20260903024506 23 157 0.0 0.0 0.00 0.89 0.86 85 1008.4
20260903024006 23 157 0.0 0.0 0.00 0.89 0.86 84 1008.4
20260903023506 23 157 0.0 0.0 0.00 0.89 0.86 84 1008.4
20260903023006 23 157 0.0 0.0 0.00 0.89 0.86 84 1008.4
20260903022006 24 157 0.0 0.0 0.00 0.89 0.86 84 1008.2
20260903021505 24 157 0.0 0.0 0.00 0.89 0.86 84 1008.2
20260903021006 24 157 0.0 0.0 0.00 0.89 0.86 83 1008.2
20260903020506 24 157 0.0 0.0 0.00 0.89 0.86 83 1008.1
20260903020007 24 157 0.0 0.0 0.00 0.89 0.86 82 1008.1
20260903015507 24 157 0.0 0.0 0.00 0.89 0.86 82 1008.0
20260903015007 24 157 0.0 0.0 0.00 0.89 0.86 81 1008.0
20260903014506 25 157 0.0 0.0 0.00 0.89 0.86 81 1008.0
20260903014009 25 157 0.0 0.0 0.00 0.89 0.86 80 1007.9
20260903013006 25 157 0.0 0.0 0.00 0.89 0.86 79 1008.0
20260903012506 25 157 0.0 0.0 0.00 0.89 0.86 79 1007.9
20260903012007 25 157 0.0 0.0 0.00 0.89 0.86 78 1007.9
20260903011006 25 157 0.0 0.0 0.00 0.89 0.86 77 1007.8
20260903010506 26 157 0.0 0.0 0.00 0.89 0.86 76 1007.7
20260903010006 26 157 0.0 0.0 0.00 0.89 0.86 76 1007.7
20260903005505 26 157 0.0 0.0 0.00 0.89 0.86 76 1007.7
20260903005005 26 157 0.0 0.0 0.00 0.89 0.86 75 1007.7
20260903004505 26 157 0.0 0.0 0.00 0.89 0.86 74 1007.7
20260903004006 26 157 0.0 0.0 0.00 0.89 0.86 74 1007.6
20260903003006 27 157 0.0 1.6 0.00 0.89 0.86 74 1007.6
20260903002506 27 157 0.0 3.2 0.00 0.89 0.86 73 1007.6
20260903002006 27 157 0.0 3.2 0.00 0.89 0.86 73 1007.6
20260903001005 27 157 1.6 3.2 0.00 0.89 0.86 72 1007.5
20260903000006 28 157 1.6 3.2 0.00 0.89 0.86 72 1007.6
20260902235006 28 157 1.6 8.0 0.00 0.89 0.86 71 1007.6
20260902234006 28 157 1.6 9.7 0.00 0.89 0.86 71 1007.6
20260902233506 28 155 3.2 4.8 0.00 0.89 0.86 70 1007.6
20260902233006 28 155 1.6 4.8 0.00 0.89 0.86 71 1007.7
20260902232505 28 155 1.6 4.8 0.00 0.89 0.86 72 1007.6
20260902232006 28 155 1.6 4.8 0.00 0.89 0.86 72 1007.6
20260902231506 28 155 1.6 4.8 0.00 0.89 0.86 71 1007.6
20260902230505 28 155 1.6 4.8 0.00 0.89 0.86 71 1007.6
20260902230006 28 155 1.6 3.2 0.00 0.89 0.86 71 1007.6
20260902225505 28 155 1.6 4.8 0.00 0.89 0.86 70 1007.6
20260902225006 28 155 1.6 4.8 0.00 0.89 0.86 69 1007.6
20260902224505 28 155 0.0 4.8 0.00 0.89 0.86 70 1007.5
20260902224006 29 155 0.0 3.2 0.00 0.89 0.86 70 1007.5
20260902223506 29 155 3.2 4.8 0.00 0.89 0.86 69 1007.5
20260902223006 29 155 0.0 3.2 0.00 0.89 0.86 69 1007.5
20260902222506 29 155 3.2 4.8 0.00 0.89 0.86 68 1007.5
20260902221506 29 155 1.6 9.7 0.00 0.89 0.86 70 1007.5
20260902221006 29 153 3.2 9.7 0.00 0.89 0.86 69 1007.5
20260902220505 29 153 3.2 8.0 0.00 0.89 0.86 69 1007.5
20260902220006 29 152 1.6 8.0 0.00 0.89 0.86 70 1007.5
20260902215505 29 161 3.2 8.0 0.00 0.89 0.86 69 1007.5
20260902215006 29 161 1.6 3.2 0.00 0.89 0.86 69 1007.5
20260902214506 29 161 3.2 8.0 0.00 0.89 0.86 68 1007.6
20260902214005 30 161 3.2 8.0 0.00 0.89 0.86 68 1007.6
20260902213506 30 161 1.6 3.2 0.00 0.89 0.86 69 1007.6
20260902213006 30 161 4.8 9.7 0.00 0.89 0.86 67 1007.7
20260902212506 30 158 1.6 8.0 0.00 0.89 0.86 67 1007.7
20260902212006 30 141 4.8 9.7 0.00 0.89 0.86 67 1007.7
20260902211506 30 126 1.6 4.8 0.00 0.89 0.86 68 1007.8
20260902211006 30 117 1.6 4.8 0.00 0.89 0.86 68 1007.8
20260902210506 30 116 3.2 4.8 0.00 0.89 0.86 67 1007.9
20260902210006 30 162 3.2 8.0 0.00 0.89 0.86 66 1007.9
20260902205506 30 162 1.6 4.8 0.00 0.89 0.86 67 1007.9
20260902205005 30 162 1.6 8.0 0.00 0.89 0.86 68 1008.0
20260902204506 30 163 4.8 9.7 0.00 0.89 0.86 66 1008.0
20260902204005 30 160 1.6 8.0 0.00 0.89 0.86 66 1007.9
20260902203505 30 160 3.2 8.0 0.00 0.89 0.86 66 1007.9
20260902201506 30 163 3.2 8.0 0.00 0.89 0.86 67 1008.0
20260902201005 30 163 1.6 4.8 0.00 0.89 0.86 67 1007.9
20260902200506 30 163 1.6 9.7 0.00 0.89 0.86 66 1008.0
20260902200006 30 176 3.2 9.7 0.00 0.89 0.86 64 1008.1
20260902195506 30 155 1.6 4.8 0.00 0.89 0.86 66 1008.1
20260902195009 30 155 3.2 4.8 0.00 0.89 0.86 64 1008.1
20260902194506 30 154 1.6 3.2 0.00 0.89 0.86 66 1008.1
20260902194006 30 154 0.0 3.2 0.00 0.89 0.86 64 1008.2
20260902193506 30 154 1.6 4.8 0.00 0.89 0.86 65 1008.3
20260902193005 30 154 1.6 4.8 0.00 0.89 0.86 61 1008.2
20260902192006 30 154 1.6 4.8 0.00 0.89 0.86 64 1008.2
20260902191505 30 154 1.6 3.2 0.00 0.89 0.86 60 1008.2
20260902190505 31 154 3.2 4.8 0.00 0.89 0.86 60 1008.5
20260902190005 31 154 1.6 4.8 0.00 0.89 0.86 59 1008.5
20260902185505 31 154 1.6 4.8 0.00 0.89 0.86 61 1008.7
20260902185006 31 154 1.6 9.7 0.00 0.89 0.86 61 1008.9
20260902184505 31 158 3.2 9.7 0.00 0.89 0.86 60 1009.0
20260902184005 31 178 1.6 3.2 0.00 0.89 0.86 58 1009.1
20260902183506 31 178 1.6 3.2 0.00 0.89 0.86 63 1008.9
20260902183005 31 215 0.0 3.2 0.00 0.89 0.86 63 1008.7
20260902182505 31 319 0.0 3.2 0.00 0.89 0.86 62 1008.8
20260902181505 31 319 1.6 4.8 0.00 0.89 0.86 60 1008.9
20260902180505 30 163 1.6 3.2 0.00 0.89 0.86 63 1009.1
20260902175505 30 164 1.6 8.0 0.00 0.89 0.86 62 1009.2
20260902175006 30 169 1.6 8.0 0.00 0.89 0.86 63 1009.4
20260902173006 28 175 1.6 8.0 0.00 0.89 0.86 70 1009.5
20260902172505 28 163 1.6 8.0 0.00 0.89 0.86 69 1009.5
20260902172006 28 168 3.2 11.3 0.00 0.89 0.86 70 1009.7
20260902171505 28 149 1.6 8.0 0.00 0.89 0.86 71 1009.7
20260902170506 27 175 4.8 8.0 0.00 0.89 0.86 69 1009.7
20260902170006 27 173 4.8 9.7 0.00 0.89 0.86 71 1009.8
20260902165505 27 167 4.8 9.7 0.00 0.89 0.86 70 1009.7
20260902165005 27 164 3.2 9.7 0.00 0.89 0.86 71 1009.7
20260902164505 27 159 3.2 8.0 0.00 0.89 0.86 71 1009.6
20260902164006 27 171 3.2 8.0 0.00 0.89 0.86 73 1009.6
20260902163505 26 173 3.2 8.0 0.00 0.89 0.86 74 1009.5
20260902163005 26 173 3.2 8.0 0.00 0.89 0.86 75 1009.5
20260902162006 25 171 1.6 8.0 0.00 0.89 0.86 77 1009.5
20260902161006 25 160 3.2 8.0 0.00 0.89 0.86 79 1009.6
20260902160506 25 187 3.2 8.0 0.00 0.89 0.86 79 1009.6